User: anonymous   Login
Location: Unspecified
(0.0000°N, 0.0000°E)
Time: 00:25:26
(UTC+00:00)
Language:

OFEQ 10 - Orbit

View from above orbital plane
View from above orbital plane
View from above satellite
View from above satellite

Ground track
Ground track

The orbit data is extracted from the following two-line orbital elements,

1 39650U 14019A   17085.78506510 0.00004500  00000-0  22322-3 0    07
2 39650 140.9289 197.2401 0003996 104.2790 255.7202 15.16863492    00
Epoch (UTC): 26 March 2017 18:50:29
Eccentricity: 0.0003996
inclination: 140.9289°
perigee height: 512 km
apogee height: 518 km
right ascension of ascending node: 197.2401°
argument of perigee: 104.2790°
revolutions per day: 15.16863492
mean anomaly at epoch: 255.7202°
orbit number at epoch: 0

The dashed part of the orbit path shows where the satellite is in the earth's shadow,  

DLR